DECAYED

STARLINK-2087, 47977 (Decayed)

Orbit data source: Space-Track

STARLINK-2087, 47977 was a payload satellite owned by SpaceX/Seattle (US) in LEO that was launched on Wed, 24 Mar 2021 UTC via an FALCON 9 launch vehicle from the Air Force Eastern Test Range (AFETR). Payload-class satellites include a variety of spacecraft equipped with specific instruments for various scientific and technological missions. These include communications satellites like Starlink; space stations such as the ISS; scientific satellites like the Hubble; Earth observation satellites from companies like Planet Labs, Umbra, and HawkEye 360; GPS; miniature CubeSats for education and research; and military/defense satellites.

Not visible in the next 10 days
Identifier
47977, 2021-024A
Orbit
Decayed
Country
Flag of USUS
Related business
Manufacturer
SpaceX/Seattle
Mission
Decayed Commercial Communications
Bus & Motor
STARLINK, Unknown motor
Mass
260 kg wet, ~248 kg dry
Launch date (UTC)
2021-03-24 (5 years ago)
Launch vehicle
FALCON 9
Launch site
Air Force Eastern Test Range (AFETR)
Object type
Payload
Rocket body
Debris
Shape & HBR
Box + 1 Pan, 10.1 m
Radar Cross Section
13.562 m², Large (>1 m²)

Expand to show TLE details & history
Last TLE update: 1 year ago

TLE from 1 year ago
0 STARLINK-2087
1 47977U 21024A   25062.43595019  .25048933  12666-4  33713-3 0  9993
2 47977  53.0215 150.3884 0003129 343.3128 103.7375 16.49116388218824
Epoch: 2025-03-03T10:27Z
TLE epoch observation values (Epoch: 2025-03-03T10:27:46.096Z)
Latitude
53.08228°
Longitude
-82.85164°
Altitude
148.596 km
Speed
7.823 km/s
True Right ascension
15h 42m 10s
True Declination
52° 54' 05"
Sunlit
Object was in full shadow at epoch
Visualization orbit readout
Latitude
Unknown
Longitude
Unknown
Altitude
Unknown
Speed
Unknown
Apparent Right ascension
Unknown
Apparent Declination
Unknown
Sunlit
N/A
Visualization observer readout
Local Sidereal Time
20:41:38
Azimuth
Unknown
Elevation
Unknown
Doppler factor
Unknown
Orbital elements
Apogee altitude
143.996 km
Perigee altitude
139.916 km
Semi-major axis
6,520.093 km
Eccentricity
0.00031
Inclination
53.0215°
RAAN
150.3884°
Arg. of periapsis
343.3128°
True anomaly
103.77233°
Mean anomaly
103.7375°
Eccentric anomaly
103.75491°
Mean motion
4.12252 °/min
Orbital period
87.33 mins
BSTAR
0.00033713
Loading maneuver chart data...
Computing Atmospheric mass density...

Documentation

Showing up to 5 results
|